GW4497 Weather Reports


time (UTC)temp
C
wind
direction
speed
KPH
gust
KPH
rain 1hr
cm
rain 24hr
cm
rain mn
cm
humidity
%
barometer
mb
20260508004503 10 28 1.6 4.8 0.00 0.00 0.00 88 1013.5
20260508004003 10 64 3.2 6.4 0.00 0.00 0.00 88 1013.6
20260508003503 10 102 1.6 6.4 0.00 0.00 0.00 88 1013.7
20260508003003 10 208 1.6 4.8 0.00 0.00 0.00 87 1013.8
20260508002716 10 239 1.6 4.8 0.00 0.00 0.00 87 1013.7
20260508002003 10 45 1.6 4.8 0.00 0.00 0.00 87 1013.8
20260508001716 10 84 1.6 4.8 0.00 0.00 0.00 87 1013.6
20260508001003 10 52 1.6 6.4 0.00 0.00 0.00 87 1014.0
20260508000503 10 270 1.6 3.2 0.00 0.00 0.00 87 1014.1
20260508000004 10 271 1.6 3.2 0.00 0.00 0.00 87 1013.7
20260507235503 10 343 1.6 4.8 0.00 0.00 0.00 87 1013.9
20260507235003 11 329 1.6 4.8 0.00 0.00 0.00 87 1013.8
20260507234503 11 341 1.6 4.8 0.00 0.00 0.00 87 1013.9
20260507234003 11 6 1.6 4.8 0.00 0.00 0.00 87 1013.9
20260507233718 11 357 1.6 6.4 0.00 0.00 0.00 87 1014.1
20260507233003 11 357 3.2 6.4 0.00 0.00 0.00 87 1014.0
20260507232503 11 9 3.2 6.4 0.00 0.00 0.00 87 1013.8
20260507232003 11 20 3.2 6.4 0.00 0.00 0.00 87 1014.0
20260507231503 11 25 3.2 6.4 0.00 0.00 0.00 87 1014.2
20260507231003 11 48 3.2 6.4 0.00 0.00 0.00 86 1014.2
20260507230503 11 49 3.2 6.4 0.00 0.00 0.00 86 1014.2
20260507230003 11 13 1.6 6.4 0.00 0.00 0.00 86 1014.4
20260507225503 11 342 1.6 6.4 0.00 0.00 0.00 86 1014.6
20260507225003 11 332 1.6 6.4 0.00 0.00 0.00 86 1014.4
20260507224504 11 3 1.6 4.8 0.00 0.00 0.00 86 1014.4
20260507224003 11 21 1.6 6.4 0.00 0.00 0.00 86 1014.4
20260507223503 11 351 1.6 6.4 0.00 0.00 0.00 86 1014.5
20260507223003 11 306 1.6 6.4 0.00 0.00 0.00 86 1014.3
20260507222718 11 260 1.6 4.8 0.00 0.00 0.00 86 1014.5
20260507222003 11 354 1.6 4.8 0.00 0.00 0.00 85 1014.3
20260507221503 12 70 1.6 4.8 0.00 0.00 0.00 85 1014.4
20260507221003 11 270 1.6 4.8 0.00 0.00 0.00 85 1014.4
20260507220503 11 305 3.2 8.0 0.00 0.00 0.00 85 1014.6
20260507220003 12 330 4.8 8.0 0.00 0.00 0.00 85 1014.5
20260507215503 12 344 3.2 8.0 0.00 0.00 0.00 85 1014.6
20260507215003 12 13 1.6 6.4 0.00 0.00 0.00 85 1014.6
20260507214503 12 58 1.6 4.8 0.00 0.00 0.00 85 1014.5
20260507214218 12 105 1.6 4.8 0.00 0.00 0.00 85 1014.4
20260507213503 12 218 1.6 4.8 0.00 0.00 0.00 84 1014.5
20260507213218 12 238 1.6 4.8 0.00 0.00 0.00 84 1014.7
20260507212503 12 5 1.6 6.4 0.00 0.00 0.00 84 1014.6
20260507212003 12 10 3.2 6.4 0.00 0.00 0.00 84 1014.7
20260507211503 12 3 3.2 6.4 0.00 0.00 0.00 84 1014.7
20260507211003 12 26 3.2 6.4 0.00 0.00 0.00 84 1014.6
20260507210503 12 22 1.6 6.4 0.00 0.00 0.00 84 1014.6
20260507210003 12 309 1.6 4.8 0.00 0.00 0.00 84 1014.7
20260507205503 12 336 1.6 6.4 0.00 0.00 0.00 84 1014.7
20260507205003 12 351 3.2 6.4 0.00 0.00 0.00 84 1014.7
20260507204503 12 329 1.6 4.8 0.00 0.00 0.00 84 1014.6
20260507204003 12 286 1.6 6.4 0.00 0.00 0.00 84 1014.7
20260507203503 12 347 1.6 6.4 0.00 0.00 0.00 83 1014.6
20260507203218 12 359 1.6 6.4 0.00 0.00 0.00 84 1014.6
20260507202503 13 277 1.6 4.8 0.00 0.00 0.00 84 1014.5
20260507202003 13 270 1.6 3.2 0.00 0.00 0.00 83 1014.6
20260507201503 13 267 1.6 3.2 0.00 0.00 0.00 83 1014.5
20260507201003 13 258 1.6 4.8 0.00 0.00 0.00 83 1014.6
20260507200503 13 253 1.6 4.8 0.00 0.00 0.00 82 1014.3
20260507200003 13 266 1.6 4.8 0.00 0.00 0.00 82 1014.2
20260507195503 13 265 3.2 4.8 0.00 0.00 0.00 82 1014.1
20260507195003 13 261 1.6 4.8 0.00 0.00 0.00 81 1014.1
20260507194503 14 260 1.6 4.8 0.00 0.00 0.00 81 1013.9
20260507194003 14 268 1.6 4.8 0.00 0.00 0.00 81 1013.9
20260507193503 14 334 3.2 4.8 0.00 0.00 0.00 80 1013.9
20260507193003 14 304 1.6 4.8 0.00 0.00 0.00 80 1013.8
20260507192503 14 254 3.2 6.4 0.00 0.00 0.00 80 1013.6
20260507192003 14 298 3.2 8.0 0.00 0.00 0.00 79 1013.6
20260507191503 15 332 3.2 8.0 0.00 0.00 0.00 79 1013.4
20260507191003 15 357 1.6 8.0 0.00 0.00 0.00 78 1013.4
20260507190503 15 144 1.6 4.8 0.00 0.00 0.00 77 1013.2
20260507190004 15 339 1.6 6.4 0.00 0.00 0.00 77 1013.5
20260507185503 15 357 3.2 6.4 0.00 0.00 0.00 77 1013.2
20260507185003 15 35 3.2 4.8 0.00 0.00 0.00 76 1013.1
20260507184716 15 66 3.2 8.0 0.00 0.00 0.00 76 1013.1
20260507184217 15 67 3.2 8.0 0.00 0.00 0.00 76 1013.2
20260507183503 16 106 1.6 4.8 0.00 0.00 0.00 75 1013.3
20260507183003 16 144 3.2 8.0 0.00 0.00 0.00 74 1013.0
20260507182503 16 129 3.2 8.0 0.00 0.00 0.00 74 1012.9
20260507182003 16 108 3.2 8.0 0.00 0.00 0.00 74 1012.8
20260507181503 16 103 3.2 8.0 0.00 0.00 0.00 73 1013.0
20260507181003 16 69 3.2 8.0 0.00 0.00 0.00 73 1012.8
20260507180503 16 86 4.8 9.7 0.00 0.00 0.00 73 1012.9
20260507180003 16 130 6.4 14.5 0.00 0.00 0.00 74 1012.9
20260507175503 16 133 8.0 16.1 0.00 0.00 0.00 74 1012.7
20260507175003 16 126 6.4 16.1 0.00 0.00 0.00 73 1012.8
20260507174503 16 134 6.4 12.9 0.00 0.00 0.00 73 1012.8
20260507174003 16 133 8.0 14.5 0.00 0.00 0.00 72 1012.9
20260507173503 16 127 6.4 14.5 0.00 0.00 0.00 72 1013.0
20260507173004 16 121 8.0 14.5 0.00 0.00 0.00 71 1012.8
20260507172503 16 111 8.0 14.5 0.00 0.00 0.00 72 1012.6
20260507172003 16 107 8.0 16.1 0.00 0.00 0.00 71 1012.7
20260507171718 16 118 8.0 16.1 0.00 0.00 0.00 71 1012.5
20260507171003 16 127 8.0 16.1 0.00 0.00 0.00 71 1012.6
20260507170503 16 126 8.0 17.7 0.00 0.00 0.00 71 1012.6
20260507170217 16 130 8.0 17.7 0.00 0.00 0.00 70 1012.5
20260507165503 16 118 8.0 17.7 0.00 0.00 0.00 70 1012.5
20260507165217 16 114 8.0 17.7 0.00 0.00 0.00 71 1012.8
20260507164503 16 114 8.0 17.7 0.00 0.00 0.00 70 1012.7
20260507164003 16 106 8.0 19.3 0.00 0.00 0.00 69 1012.3
20260507163503 16 113 9.7 20.9 0.00 0.00 0.00 69 1012.6
20260507163003 16 125 8.0 20.9 0.00 0.00 0.00 69 1012.6
20260507162503 16 134 8.0 17.7 0.00 0.00 0.00 68 1012.3
20260507162216 16 132 8.0 14.5 0.00 0.00 0.00 68 1012.5
20260507161503 16 120 8.0 19.3 0.00 0.00 0.00 68 1012.5
20260507161003 16 126 8.0 20.9 0.00 0.00 0.00 68 1012.6
20260507160717 16 139 9.7 24.1 0.00 0.00 0.00 68 1012.5
20260507160003 16 139 11.3 25.7 0.00 0.00 0.00 65 1012.6
20260507155717 16 129 11.3 25.7 0.00 0.00 0.00 66 1012.7
20260507155003 16 117 9.7 19.3 0.00 0.00 0.00 67 1012.7
20260507154717 16 136 9.7 22.5 0.00 0.00 0.00 67 1012.8
20260507154003 16 157 11.3 22.5 0.00 0.00 0.00 67 1012.6
20260507153504 16 136 12.9 22.5 0.00 0.00 0.00 67 1012.7
20260507153218 16 132 12.9 30.6 0.00 0.00 0.00 66 1012.9
20260507152503 16 157 12.9 30.6 0.00 0.00 0.00 66 1012.6
20260507152003 17 156 12.9 25.7 0.00 0.00 0.00 65 1012.7
20260507151503 17 143 12.9 25.7 0.00 0.00 0.00 64 1012.7
20260507151003 17 144 12.9 25.7 0.00 0.00 0.00 62 1012.8
20260507150503 17 154 11.3 25.7 0.00 0.00 0.00 61 1012.9
20260507150218 17 149 9.7 24.1 0.00 0.00 0.00 60 1012.9
20260507145503 17 106 8.0 20.9 0.00 0.00 0.00 59 1012.3
20260507145003 17 116 8.0 16.1 0.00 0.00 0.00 60 1012.6
20260507144503 17 112 8.0 16.1 0.00 0.00 0.00 60 1012.3
20260507144003 17 106 9.7 16.1 0.00 0.00 0.00 60 1012.7
20260507143503 18 108 8.0 17.7 0.00 0.00 0.00 59 1012.6
20260507143003 17 111 8.0 19.3 0.00 0.00 0.00 61 1012.7
20260507142503 17 111 9.7 20.9 0.00 0.00 0.00 60 1012.7
20260507142003 17 134 9.7 20.9 0.00 0.00 0.00 60 1012.9
20260507141503 17 154 9.7 20.9 0.00 0.00 0.00 61 1012.9
20260507141003 17 148 9.7 20.9 0.00 0.00 0.00 60 1013.2
20260507140503 17 134 11.3 25.7 0.00 0.00 0.00 61 1013.1
20260507140003 17 125 11.3 25.7 0.00 0.00 0.00 60 1013.1
20260507135503 17 125 11.3 22.5 0.00 0.00 0.00 60 1013.2
20260507135003 17 119 11.3 22.5 0.00 0.00 0.00 59 1013.4
20260507134503 17 119 11.3 22.5 0.00 0.00 0.00 59 1013.6
20260507134003 17 137 9.7 22.5 0.00 0.00 0.00 60 1013.5
20260507133503 17 141 9.7 22.5 0.00 0.00 0.00 59 1013.4
20260507133003 17 133 9.7 22.5 0.00 0.00 0.00 58 1013.6
20260507132503 17 141 12.9 25.7 0.00 0.00 0.00 58 1013.7
20260507132003 17 142 12.9 27.4 0.00 0.00 0.00 60 1013.7
20260507131718 17 140 12.9 27.4 0.00 0.00 0.00 58 1013.7
20260507131003 17 133 12.9 29.0 0.00 0.00 0.00 58 1013.8
20260507130503 17 120 12.9 32.2 0.00 0.00 0.00 57 1013.9
20260507130004 17 134 14.5 33.8 0.00 0.00 0.00 60 1013.9
20260507125503 17 145 14.5 33.8 0.00 0.00 0.00 61 1013.9
20260507125003 17 146 14.5 29.0 0.00 0.00 0.00 61 1013.9
20260507124503 17 154 16.1 29.0 0.00 0.00 0.00 61 1014.1
20260507124003 17 148 14.5 29.0 0.00 0.00 0.00 60 1014.1
20260507123503 17 146 14.5 32.2 0.00 0.00 0.00 60 1014.1
20260507123003 17 156 14.5 32.2 0.00 0.00 0.00 60 1014.0
20260507122718 17 160 14.5 32.2 0.00 0.00 0.00 61 1014.1
20260507122004 17 151 12.9 29.0 0.00 0.00 0.00 61 1014.3
20260507121503 17 139 12.9 27.4 0.00 0.00 0.00 61 1014.1
20260507121003 17 131 14.5 32.2 0.00 0.00 0.00 61 1014.0
20260507120503 17 130 16.1 35.4 0.00 0.00 0.00 60 1014.2
20260507120217 17 130 16.1 35.4 0.00 0.00 0.00 60 1014.3
20260507115718 17 141 14.5 30.6 0.00 0.00 0.00 61 1014.1
20260507115003 17 138 14.5 29.0 0.00 0.00 0.00 60 1014.2
20260507114503 17 150 12.9 29.0 0.00 0.00 0.00 60 1013.9
20260507114003 17 145 11.3 25.7 0.00 0.00 0.00 58 1013.9
20260507113503 18 131 12.9 25.7 0.00 0.00 0.00 60 1013.9
20260507113003 17 135 12.9 29.0 0.00 0.00 0.00 58 1014.1
20260507112503 17 134 12.9 30.6 0.00 0.00 0.00 59 1014.1
20260507112003 17 132 12.9 30.6 0.00 0.00 0.00 60 1014.0
20260507111718 17 138 12.9 25.7 0.00 0.00 0.00 63 1014.0
20260507111003 17 135 14.5 25.7 0.00 0.00 0.00 62 1014.3
20260507110503 16 141 12.9 25.7 0.00 0.00 0.00 63 1014.3
20260507110216 17 162 12.9 24.1 0.00 0.00 0.00 63 1014.3
20260507105503 16 186 11.3 24.1 0.00 0.00 0.00 66 1014.3
20260507105003 16 194 12.9 25.7 0.00 0.00 0.00 64 1014.7
20260507104504 16 189 12.9 25.7 0.00 0.00 0.00 66 1014.6
20260507104003 17 162 11.3 24.1 0.00 0.00 0.00 62 1014.4
20260507103503 17 149 11.3 22.5 0.00 0.00 0.00 63 1014.5
20260507103003 17 147 11.3 22.5 0.00 0.00 0.00 65 1014.5
20260507102717 17 152 11.3 22.5 0.00 0.00 0.00 66 1014.4
20260507102003 17 176 11.3 20.9 0.00 0.00 0.00 64 1014.5
20260507101503 17 140 9.7 20.9 0.00 0.00 0.00 64 1014.5
20260507101003 17 140 8.0 17.7 0.00 0.00 0.00 61 1014.7
20260507100503 17 151 8.0 19.3 0.00 0.00 0.00 61 1014.5
20260507100004 16 143 8.0 19.3 0.00 0.00 0.00 63 1014.8
20260507095503 16 141 6.4 17.7 0.00 0.00 0.00 63 1014.7
20260507095003 16 140 9.7 20.9 0.00 0.00 0.00 64 1014.6
20260507094717 16 135 9.7 20.9 0.00 0.00 0.00 64 1014.7
20260507094003 17 117 8.0 17.7 0.00 0.00 0.00 62 1014.7
20260507093503 16 119 8.0 17.7 0.00 0.00 0.00 65 1014.9
20260507093003 16 135 6.4 16.1 0.00 0.00 0.00 67 1014.8
20260507092503 16 132 8.0 17.7 0.00 0.00 0.00 68 1014.8
20260507092003 16 124 9.7 17.7 0.00 0.00 0.00 68 1014.7
20260507091503 16 135 9.7 20.9 0.00 0.00 0.00 69 1014.8
20260507091218 16 153 8.0 20.9 0.00 0.00 0.00 69 1014.9
20260507090503 16 169 6.4 12.9 0.00 0.00 0.00 69 1014.4
20260507090004 16 146 8.0 14.5 0.00 0.00 0.00 66 1014.6
20260507085503 16 121 6.4 14.5 0.00 0.00 0.00 67 1014.6
20260507085003 16 92 3.2 8.0 0.00 0.00 0.00 68 1014.6
20260507084717 16 89 3.2 8.0 0.00 0.00 0.00 68 1014.6
20260507084003 16 139 4.8 12.9 0.00 0.00 0.00 70 1014.6
20260507083503 16 160 3.2 12.9 0.00 0.00 0.00 70 1014.8
20260507083004 16 145 3.2 6.4 0.00 0.00 0.00 68 1014.6
20260507082503 16 81 3.2 11.3 0.00 0.00 0.00 69 1014.7
20260507082003 16 88 4.8 11.3 0.00 0.00 0.00 70 1014.8
20260507081503 15 82 4.8 9.7 0.00 0.00 0.00 70 1014.9
20260507081003 16 80 4.8 9.7 0.00 0.00 0.00 69 1014.7
20260507080503 15 117 3.2 8.0 0.00 0.00 0.00 70 1014.6
20260507080003 15 103 4.8 11.3 0.00 0.00 0.00 74 1014.8
20260507075503 15 95 6.4 11.3 0.00 0.00 0.00 74 1014.8
20260507075003 15 89 4.8 11.3 0.00 0.00 0.00 73 1014.7
20260507074503 15 91 6.4 11.3 0.00 0.00 0.00 74 1014.8
20260507074003 15 102 6.4 11.3 0.00 0.00 0.00 74 1014.7
20260507073503 15 103 6.4 11.3 0.00 0.00 0.00 74 1014.9
20260507073217 15 112 4.8 9.7 0.00 0.00 0.00 75 1014.9
20260507072503 14 172 1.6 4.8 0.00 0.00 0.00 79 1015.0
20260507072003 14 201 1.6 4.8 0.00 0.00 0.00 79 1014.9
20260507071504 14 169 3.2 8.0 0.00 0.00 0.00 80 1014.9
20260507071003 14 148 3.2 8.0 0.00 0.00 0.00 79 1014.7
20260507070503 14 130 3.2 6.4 0.00 0.00 0.00 79 1014.6
20260507070217 14 135 1.6 6.4 0.00 0.00 0.00 79 1014.7
20260507065718 14 93 1.6 6.4 0.00 0.00 0.00 78 1014.5
20260507065003 13 149 1.6 4.8 0.00 0.00 0.00 81 1014.5
20260507064718 13 176 1.6 4.8 0.00 0.00 0.00 82 1014.7
20260507064003 12 213 1.6 3.2 0.00 0.00 0.00 83 1014.5
20260507063503 12 207 0.0 3.2 0.00 0.00 0.00 83 1014.4
20260507063003 12 201 0.0 3.2 0.00 0.00 0.00 85 1014.4
20260507062503 11 190 0.0 3.2 0.00 0.00 0.00 87 1014.3
20260507062003 11 228 0.0 3.2 0.00 0.00 0.00 87 1014.2
20260507061718 10 331 0.0 3.2 0.00 0.00 0.00 88 1014.3
20260507061003 10 284 0.0 3.2 0.00 0.00 0.00 88 1014.1
20260507060503 10 121 1.6 4.8 0.00 0.00 0.00 89 1014.2
20260507060217 10 112 1.6 4.8 0.00 0.00 0.00 89 1014.4
20260507055503 10 149 0.0 3.2 0.00 0.00 0.00 90 1014.4
20260507055216 9 195 0.0 3.2 0.00 0.00 0.00 90 1014.2
20260507054503 9 28 1.6 3.2 0.00 0.00 0.00 91 1014.3
20260507054003 10 21 0.0 3.2 0.00 0.00 0.00 91 1014.3
20260507053717 8 288 0.0 3.2 0.00 0.00 0.00 91 1014.2
20260507053004 8 210 0.0 3.2 0.00 0.00 0.00 91 1014.3
20260507052717 8 150 0.0 3.2 0.00 0.00 0.00 91 1014.1
20260507052003 8 171 0.0 4.8 0.00 0.00 0.00 92 1014.0
20260507051504 8 173 1.6 4.8 0.00 0.00 0.00 92 1013.8
20260507051003 8 250 0.0 3.2 0.00 0.00 0.00 92 1013.7
20260507050503 8 346 0.0 3.2 0.00 0.00 0.00 92 1013.9
20260507050003 8 345 0.0 3.2 0.00 0.00 0.00 92 1013.9
20260507045503 8 149 1.6 4.8 0.00 0.00 0.00 92 1013.8
20260507045218 8 107 1.6 4.8 0.00 0.00 0.00 91 1013.9
20260507044503 8 106 3.2 6.4 0.00 0.00 0.00 92 1013.8
20260507044218 8 126 1.6 6.4 0.00 0.00 0.00 92 1013.8
20260507043503 8 249 1.6 3.2 0.00 0.00 0.00 92 1013.6
20260507043003 8 181 1.6 6.4 0.00 0.00 0.00 91 1013.6
20260507042503 8 164 1.6 6.4 0.00 0.00 0.00 92 1013.6
20260507042003 8 173 1.6 3.2 0.00 0.00 0.00 91 1013.8
20260507041503 8 18 1.6 3.2 0.00 0.00 0.00 92 1013.7
20260507041003 8 334 1.6 3.2 0.00 0.00 0.00 92 1013.7
20260507040717 8 333 1.6 3.2 0.00 0.00 0.00 92 1013.8
20260507040003 8 117 1.6 3.2 0.00 0.00 0.00 91 1013.7
20260507035503 8 161 1.6 3.2 0.00 0.00 0.00 92 1013.6
20260507035003 8 185 0.0 3.2 0.00 0.00 0.00 91 1013.9
20260507034503 8 215 1.6 6.4 0.00 0.00 0.00 91 1013.7
20260507034003 8 2 1.6 6.4 0.00 0.00 0.00 91 1013.7
20260507033503 9 348 3.2 6.4 0.00 0.00 0.00 92 1013.7
20260507033003 8 286 1.6 4.8 0.00 0.00 0.00 91 1013.9
20260507032503 9 107 1.6 4.8 0.00 0.00 0.00 91 1014.0
20260507032003 9 102 1.6 4.8 0.00 0.00 0.00 92 1013.7
20260507031503 9 50 1.6 4.8 0.00 0.00 0.00 91 1013.9
20260507031218 9 351 1.6 3.2 0.00 0.00 0.00 91 1013.8
20260507030503 9 288 1.6 3.2 0.00 0.00 0.00 91 1013.8
20260507030003 9 313 1.6 4.8 0.00 0.00 0.00 91 1014.0
20260507025503 10 46 1.6 4.8 0.00 0.00 0.00 91 1013.9
20260507025217 10 65 1.6 4.8 0.00 0.00 0.00 91 1013.7
20260507024716 10 268 1.6 3.2 0.00 0.00 0.00 91 1013.6
20260507024003 10 74 3.2 6.4 0.00 0.00 0.00 91 1013.6
20260507023503 10 99 3.2 6.4 0.00 0.00 0.00 91 1013.8
20260507023003 10 142 1.6 6.4 0.00 0.00 0.00 91 1013.8
20260507022718 10 213 0.0 3.2 0.00 0.00 0.00 91 1013.7
20260507022217 10 309 0.0 3.2 0.00 0.00 0.00 91 1013.8
20260507021718 10 55 1.6 4.8 0.00 0.00 0.00 91 1013.9
20260507021003 10 117 1.6 6.4 0.00 0.00 0.00 91 1013.7
20260507020503 10 129 1.6 6.4 0.00 0.00 0.00 91 1013.8
20260507020003 10 139 1.6 6.4 0.00 0.00 0.00 91 1014.0
20260507015718 10 175 0.0 3.2 0.00 0.00 0.00 91 1014.1
20260507015217 10 266 1.6 4.8 0.00 0.00 0.00 91 1013.8
20260507014503 10 100 3.2 6.4 0.00 0.00 0.00 91 1014.1
20260507014217 11 120 3.2 6.4 0.00 0.00 0.00 91 1013.9
20260507013503 11 139 1.6 6.4 0.00 0.00 0.00 91 1014.0
20260507013003 11 333 1.6 3.2 0.00 0.00 0.00 91 1014.1
20260507012503 11 313 1.6 3.2 0.00 0.00 0.00 90 1014.0
20260507012003 11 281 1.6 4.8 0.00 0.00 0.00 90 1014.0
20260507011503 11 133 1.6 4.8 0.00 0.00 0.00 90 1013.9
20260507010503 11 26 3.2 6.4 0.00 0.00 0.00 90 1013.9
20260507010003 11 311 3.2 6.4 0.00 0.00 0.00 90 1013.8
20260507005718 11 288 3.2 6.4 0.00 0.00 0.00 90 1014.3
20260507005003 11 357 1.6 6.4 0.00 0.00 0.00 90 1014.0
20260507004718 12 89 3.2 6.4 0.00 0.00 0.00 90 1013.9